Regional Weather Roundup
Issued by NWS Pendleton, OR

Home | Current Version | Previous Version | Text Only | Print | Product List | Glossary On
Versions: 1 2 3 4 5 6 7 8 9 10 11 12 13 14 15 16 17 18 19 20 21 22 23 24 25 26 27 28 29 30 31 32 33 34 35 36 37 38 39 40 41 42 43 44 45 46 47 48 49 50
000
ASUS46 KPDT 010525
RWRPDT
PENDLETON REGIONAL WEATHER ROUNDUP
NATIONAL WEATHER SERVICE PENDLETON OREGON
900 PM PST SAT JAN 31 2015

NOTE: FAIR INDICATES FEW OR NO CLOUDS BELOW 12,000 FEET WITH NO
SIGNIFICANT WEATHER AND/OR OBSTRUCTIONS TO VISIBILITY.

# INDICATES UNOFFICIAL STATION AND DATA

WAZ520-010610-
EAST SLOPES OF WASHINGTON CASCADES

CITY            SKY/WX      TMP DP  RH  WIND    PRES   REMARKS
#BUMPING DAM    N/A         34  N/A N/A CALM    N/A
#CLE ELUM HS    N/A         33  30  89  CALM    30.21S
#CLE ELUM LAKE  N/A         29  29  100 CALM    30.33F
#CLIFFDEL 2NW   N/A         30  29  96  CALM    N/A
#GLENWOOD       N/A         33  32  96  CALM    30.32S
#MANASTASH CYN  N/A         31  27  85  CALM    30.19S
#NELSON         N/A         32  30  92  CALM    30.35S
#NELSON 3SW     N/A         29  28  96  CALM    30.55F
#NILE           N/A         32  30  92  CALM    29.57F
#RONALD 2NW     N/A         32  23  69  CALM    30.07F
#SNOWDEN        N/A         30  28  92  CALM    N/A
#TEANAWAY 4NE   N/A         33  32  96  CALM    N/A
#TROUT LAKE 1NE N/A         32  31  96  CALM    30.32S
$$

WAZ521-010610-
SIMCOE HIGHLANDS

CITY            SKY/WX      TMP DP  RH  WIND    PRES   REMARKS
#BICKLETON HS   N/A         29  29  100 CALM    N/A
#CENTERVILLE 4W N/A         33  31  92  E10     29.98F
#CENTERVILLE 1SWN/A         32  30  92  E6      30.29F
#GOLDENDALE     N/A         33  33  100 E5      N/A
#GOLDENDALE 1NE N/A         33  30  89  E6      N/A
#GOLDENDALE 1S  N/A         30  30  100 CALM    30.22S
#GOLDENDALE 5WNWN/A         32  31  96  E6      30.31F
#GOODNOE HILLS  N/A         34  29  82  NE9     N/A
#LYLE 6NE       N/A         33  32  96  CALM    30.29F
$$

WAZ026-010610-
KITTITAS VALLEY

CITY            SKY/WX      TMP DP  RH  WIND    PRES   REMARKS
ELLENSBURG AP   CLOUDY      36  31  82  SE5     30.27F
#ELLENSBURG CWU N/A         34  32  92  E6      30.29F
#ELLENSBURG 3NE N/A         33  31  92  CALM    30.27S
#ELLENSBURG 1E  N/A         34  30  85  SE1     N/A
#KITTITAS 4N    N/A         34  31  89  W1      28.57F
#KITTITAS 3S    N/A         34  32  92  E3      30.32F
#THORP 6N       N/A         31  31  100 SE1     30.37F
$$

WAZ027-010610-
YAKIMA VALLEY

CITY            SKY/WX      TMP DP  RH  WIND    PRES   REMARKS
SUNNYSIDE AP    CLOUDY      35  32  89  CALM    30.32F
YAKIMA AIRPORT  CLOUDY      37  31  79  CALM    30.32F
YAKIMA-VAGABOND CLOUDY      35  32  89  S2      30.30F
#DONALD 2NE     N/A         36  30  79  CALM    29.16F
#MABTON         N/A         37  35  92  CALM    30.32F
#MOXEE 2E       N/A         36  30  79  CALM    30.26F
#NACHES 2SW     N/A         34  33  96  CALM    30.27F
#OUTLOOK DOT    N/A         N/A N/A N/A CALM    N/A
#SELAH 8E       N/A         32  32  100 E1      N/A
#TERRACE HTS    N/A         35  33  92  CALM    30.32F
#TOPPENISH      N/A         37  33  85  CALM    30.27F
#WAPATO 4NE     N/A         36  30  79  CALM    29.16F
#WEST VALLEY    N/A         36  33  89  CALM    30.34F
#W YAKIMA       N/A         35  32  89  CALM    30.35F
#WHITE SWAN 5E  N/A         36  33  89  CALM    30.35F
#WILEY CITY 3W  N/A         33  26  75  CALM    30.33R
$$

WAZ028-010610-
LOWER COLUMBIA BASIN...WASHINGTON

CITY            SKY/WX      TMP DP  RH  WIND    PRES   REMARKS
PASCO           CLOUDY      38  33  82  N5      30.35R
PROSSER AWOS    N/A         37  36  96  S2      30.35F
RICHLAND AWOS   CLOUDY      37  34  89  CALM    30.36R
#BASIN CITY 5SW N/A         37  34  89  CALM    30.34S
#BENTON CITY    N/A         37  33  85  CALM    30.27R
#CONNELL 5N     N/A         35  32  89  CALM    30.37R
#CONNELL 5NW    N/A         35  32  89  CALM    30.33R
#ELTOPIA 6NW    N/A         36  34  92  CALM    29.29R
#KAHLOTUS       N/A         34  31  89  NE1     30.36R
#KENNEWICK 3S   N/A         36  33  89  CALM    30.37R
#PATERSON       N/A         38  33  82  NE2     30.33R
#PROSSER        N/A         36  32  85  CALM    30.35S
#SAGEMOOR 2W    N/A         38  34  85  CALM    30.21R
#TOUCHET 2S     N/A         37  35  92  CALM    30.32S
#WEST PASCO     N/A         39  34  82  CALM    30.34R
$$

WAZ029-010610-
FOOTHILLS OF THE BLUES...WASHINGTON

CITY            SKY/WX      TMP DP  RH  WIND    PRES   REMARKS
WALLA WALLA AP  CLOUDY      36  33  89  W3      30.28S
#DAYTON SCHOOL  N/A         33  26  75  N1      30.27S
#LOWDEN 2SE     N/A         37  35  92  CALM    30.29R
#PLEASANT VIEW 1N/A         32  30  92  CALM    30.40S
#PRESCOTT       N/A         35  32  89  CALM    30.32S
#SUDBURY        N/A         39  N/A N/A CALM    N/A
#WHITMAN COLLEGEN/A         36  33  89  NW2     30.39R
#WAITSBURG 5S   N/A         33  32  96  N1      30.43S
#WAITSBURG 8N   N/A         32  21  63  N5      30.09F
#WALLA WALLA 5E N/A         35  33  92  SW2     N/A
#WHITMAN MISSIONN/A         37  34  89  CALM    30.35S
$$

WAZ030-010610-
BLUE MOUNTAINS...WASHINGTON

CITY            SKY/WX      TMP DP  RH  WIND    PRES   REMARKS
#DIXIE 5SE      N/A         29  28  96  CALM    30.14R
#SKI BLUEWOOD   N/A         31  22  69  CALM    30.15S
$$

ORZ009-041-WAZ024-010610-
COLUMBIA RIVER GORGE

CITY            SKY/WX      TMP DP  RH  WIND    PRES   REMARKS
HOOD RIVER AP   CLOUDY      37  32  82  E3      30.31F
THE DALLES AP   CLOUDY      39  33  79  E7      30.32F
#ARLINGTON AIRPON/A         36  33  89  NE7     30.02S
#ARLINGTON HS   N/A         38  33  82  E2      30.28F
#CELILO DOT     N/A         39  31  73  NE2     N/A
#MOSIER 1S      N/A         36  30  79  CALM    30.29S
#MURDOCK        N/A         40  36  85  E1      30.35F
#RUFUS DOT      N/A         40  29  64  E6      N/A

$$

ORZ510-010610-
NORTH CENTRAL OREGON

CITY            SKY/WX      TMP DP  RH  WIND    PRES   REMARKS
#CHENOWITH 1W   N/A         31  31  100 E12     N/A    WCI 22
#COW CYN RST AREN/A         31  31  100 N3      N/A
#DUFUR 9E       N/A         29  29  100 CALM    30.38F
#GRASS VALLEY 1SN/A         30  29  96  CALM    30.35F
#KENT DOT       N/A         30  26  85  NE6     N/A
#MAUPIN SCHOOL  N/A         36  32  85  N1      30.28S
#MORO SCHOOL    N/A         32  32  100 NE1     30.25F
#SHANIKO 5WSW   N/A         29  26  88  N7      N/A
#SHANIKO 4NW    N/A         29  29  100 NE7     30.16S
#TYGH VALLEY 2NEN/A         36  32  85  N5      30.31S
#WAPANITIA AIRPON/A         33  32  96  CALM    30.33S
#WASCO DOT      N/A         35  31  85  E2      N/A
#WASCO AIRPORT  N/A         33  31  92  E3      N/A
#WASCO 5NE      N/A         32  30  92  CALM    30.34S
$$

ORZ511-010610-
CENTRAL OREGON

CITY            SKY/WX      TMP DP  RH  WIND    PRES   REMARKS
BEND AIRPORT    FRZFOG      28  28  100 CALM    30.19S VSB<1/4
MADRAS AIRPORT  N/A         34  32  92  CALM    30.23S
PRINEVILLE AP   FRZFOG      30  30  100 CALM    30.19F VSB 1/4
REDMOND AIRPORT FOG         30  30  100 CALM    30.18S VSB 3/4
#BEND 1SW       N/A         28  27  96  CALM    N/A
#BEND-AWBREY    N/A         30  29  96  CALM    30.26S
#BEND-KIM LN    N/A         30  28  92  CALM    30.15R
#CROOKED RVR RANN/A         32  31  96  SW9     30.30S
#CULVER         N/A         32  30  92  NE1     30.17S
#LAKE BILLY CHINN/A         33  27  78  E3      30.28F
#POWELL BUTTE 3EN/A         30  30  100 W3      N/A
#POWELL BUTTE   N/A         30  26  85  NW1     29.78F
#PRINEVILLE 3N  N/A         31  30  96  CALM    30.24R
#WARM SPRINGS   N/A         37  33  85  SW2     30.21S

$$


ORZ509-010610-
EAST SLOPES OF OREGON CASCADES

CITY            SKY/WX      TMP DP  RH  WIND    PRES   REMARKS
#BLUE BOX PASS  N/A         27  -20 11  SW2     N/A
#CAMP SHERMAN   N/A         30  27  88  CALM    30.35R
#LA PINE DOT    N/A         29  24  81  W1      N/A
#LA PINE 4NW    N/A         27  22  81  CALM    30.31R
#LAVA BUTTE DOT N/A         29  25  85  CALM    N/A
#MT BACHELOR-MIDN/A         39  -5  15  E15G24  N/A    WCI 31
#SISTERS AIRPOR N/A         31  31  100 CALM    30.17S
#SISTERS ODOT   N/A         32  N/A N/A CALM    N/A
#SISTERS 1NW    N/A         32  30  92  E6      N/A
#SISTERS 3N     N/A         32  27  82  CALM    30.19S
#SUNRIVER       N/A         29  27  92  CALM    30.15S
#TUMALO 3W      N/A         29  28  96  CALM    30.16F
#WANOGA BUTTE D N/A         40  19  42  W3      N/A

$$

ORZ044-010610-
LOWER COLUMBIA BASIN...OREGON

CITY            SKY/WX      TMP DP  RH  WIND    PRES   REMARKS
HERMISTON       CLOUDY      37  32  82  N5      30.33R
#BOARDMAN SCHOOLN/A         39  33  79  CALM    30.35R
#BOARDMAN 8SW   N/A         37  35  92  N2      30.34R
#ECHO 8SW       N/A         37  35  92  N3      30.29R
#IONE SCHOOL    N/A         35  24  64  N3      30.29R
#IRRIGON 4NW    N/A         39  35  85  N6      N/A
#UMATILLA SCHOOLN/A         36  35  96  CALM    30.37R
#UMATILLA       N/A         39  31  73  CALM    30.32R
$$

ORZ507-010610-
NORTHERN FOOTHILLS OF THE BLUES

CITY            SKY/WX      TMP DP  RH  WIND    PRES   REMARKS
PENDLETON AIRPT CLOUDY      34  31  89  N8      30.27R
#ADAMS 3WNW     N/A         33  31  92  N2      30.33S
#ATHENA         N/A         33  31  92  CALM    30.35F
#CAYUSE         N/A         34  32  92  N5      30.32S
#HELIX SCHOOL   N/A         33  31  92  CALM    30.34S
#HELIX 3N       N/A         32  31  96  N5      30.21S
#HOLDMAN 5SE    N/A         34  32  92  CALM    30.27S
#HOLDMAN 6E     N/A         32  30  92  S1      30.14S
#M-F FERNDALE   N/A         36  31  82  CALM    30.29S
#M-F GROVE ELEM N/A         36  30  79  CALM    30.27S
#M-FREEWATER 5SEN/A         34  31  89  CALM    30.27S
#PENDLETON DNTN N/A         36  29  75  CALM    29.08S
#PDT AQUATIC CTRN/A         37  32  82  N5      30.28S
#PENDLETON 5NE  N/A         34  32  92  N2      30.23S
#PDT SUNRIDGE   N/A         34  31  89  NE1     30.29F
#PENDLETON 7NW  N/A         34  30  85  CALM    25.82S
#PILOT ROCK     N/A         33  28  82  N1      30.26F
#TUTUILLA       N/A         34  31  89  N2      30.31S
#UMAPINE 2E     N/A         37  35  92  CALM    30.28R
#WESTON SCHOOL  N/A         32  28  85  CALM    30.24S

$$

ORZ508-010610-
SOUTHERN FOOTHILLS OF THE BLUES

CITY            SKY/WX      TMP DP  RH  WIND    PRES   REMARKS
LEXINGTON       FOG         34  34  100 N8      30.29R VSB 3/4
#AJAX           N/A         31  26  81  N8      30.16S
#CONDON SCHOOL  N/A         30  29  96  CALM    30.16R
#CONDON 5W      N/A         28  27  96  CALM    30.16R
#FOSSIL SCHOOL  N/A         33  32  96  W1      30.17R
#HEPPNER EOC    N/A         33  31  92  N3      30.29R
#HEPPNER 4NE    N/A         30  29  96  CALM    30.34R
#LEXINGTON 2SE  N/A         35  32  89  N1      30.24R
#MIKKALO        N/A         33  32  96  NE2     30.26S
#OLEX 4N        N/A         34  33  96  NE3     30.29S
#RUGGS 5NE      N/A         31  26  81  N3      30.36S
#RUGGS 2SW      N/A         30  29  96  N6      30.37R

$$

ORZ502-503-010610-
BLUE MOUNTAINS

CITY            SKY/WX      TMP DP  RH  WIND    PRES   REMARKS
MEACHAM         MOCLEAR     29  26  88  CALM    30.17S
#BATTLE MTN DOT N/A         32  32  100 S5      N/A
#HARDMAN 10S    N/A         32  30  92  CALM    30.41R
#HEPPNER 15SE   N/A         33  28  82  W1      30.07S
#LADD CYN SMT   N/A         31  23  72  CALM    N/A
#LADD CREEK ODOTN/A         31  -2  23  S2      N/A
#LONG CREEK HS  N/A         34  33  96  CALM    30.12S
#N POWDER DOT   N/A         29  26  88  CALM    N/A
#PIKES PEAK     N/A         29  27  92  CALM    27.99S
#TOLLGATE       N/A         31  23  72  CALM    30.07S
#TROY SCHOOL    N/A         36  31  82  CALM    30.18F
#UKIAH          N/A         30  28  92  CALM    30.32F
#WESTON 4E      N/A         28  27  96  CALM    30.29S
$$

ORZ505-010610-
JOHN DAY BASIN

CITY            SKY/WX      TMP DP  RH  WIND    PRES   REMARKS
JOHN DAY        CLEAR       35  29  78  E9      30.18S
#MITCHELL       N/A         34  32  92  CALM    30.30F
#MONUMENT HS    N/A         34  29  82  CALM    30.20S
#MT. VERNON 5SE N/A         35  29  78  CALM    30.12R
#WINLOCK        N/A         34  30  85  CALM    30.25S
$$

ORZ506-010610-
OCHOCO AND JOHN DAY HIGHLANDS

CITY            SKY/WX      TMP DP  RH  WIND    PRES   REMARKS
#BUCK CREEK DOT N/A         43  43  100 E7      N/A
#HORSE RIDGE DO N/A         25  23  92  CALM    N/A
#KEYES SMT DOT  N/A         33  30  89  E6      N/A
#PAULINA SCHOOL N/A         45  34  65  CALM    30.12R
#PINE MTN OBS   N/A         39  23  52  S9      N/A
#PRAIRIE CITY   N/A         25  20  81  E1      30.40R
#SENECA         N/A         30  N/A N/A W2      N/A
#SENECA 9NW     N/A         28  24  85  CALM    30.31R
$$

ORZ049-010610-
GRANDE RONDE VALLEY

CITY            SKY/WX      TMP DP  RH  WIND    PRES   REMARKS
LA GRANDE       CLEAR       30  21  69  CALM    30.19S
#COVE           N/A         32  27  82  SE2     30.03S
#COVE SCHOOL    N/A         31  27  85  E1      30.15F
#COVE 6NW       N/A         32  27  82  CALM    30.36S
#ELGIN 3N       N/A         34  22  61  CALM    30.00S
#ELGIN 1E       N/A         35  29  78  CALM    N/A
#IMBLER SCHOOL  N/A         36  30  79  NE3     30.14S
#ISLAND CITY 4N N/A         40  39  96  CALM    30.11S
#LADD CYN DOT   N/A         36  24  61  SE13    N/A    WCI 27
#UNION 1S       N/A         33  27  78  CALM    30.23S
$$

ORZ050-010610-
WALLOWA COUNTY

CITY            SKY/WX      TMP DP  RH  WIND    PRES   REMARKS
JOSEPH AIRPORT  CLEAR       32  27  82  SW3     30.19F
#ENTERPRISE AP  N/A         33  26  75  CALM    30.11R
#ENTERPRISE HS  N/A         33  28  82  CALM    30.18S
#IMNAHA SCHOOL  N/A         38  33  82  CALM    30.26S
#IMNAHA 10S     N/A         30  27  88  CALM    30.22S
#JOSEPH 3N      N/A         29  27  92  E1      30.19S
#JOSEPH 3W      N/A         33  17  51  SW2     30.00S
#LOSTINE        N/A         31  26  81  CALM    30.12S
#MT HOWARD 8000 N/A         27  -4  25  W2      30.12S
#PROMISE 1S     N/A         28  27  96  CALM    30.46F
#SHEEP RDG 7000 N/A         32   0  25  CALM    30.24S
#WALLOWA SCHOOL N/A         30  27  88  CALM    31.32S



$$



USA.gov is the U.S. government's official web portal to all federal, state and local government web resources and services.